User: anonymous   Login
Location: Caltech
(34.1382°N, 118.1253°W)
Time: 00:07:42
(UTC-08:00)
Language:

Cosmos 2322 - Orbit

View from above orbital plane
View from above orbital plane
View from above satellite
View from above satellite

Ground track
Ground track

The orbit data is extracted from the following two-line orbital elements,

1 23704U 95058A   17053.94629732 +.00000265 +00000-0 +16662-3 0  9998
2 23704 070.9856 283.2392 0011441 267.6761 092.3050 14.13372458099496
Epoch (UTC): 22 February 2017 22:42:40
Eccentricity: 0.0011441
inclination: 70.9856°
perigee height: 839 km
apogee height: 856 km
right ascension of ascending node: 283.2392°
argument of perigee: 267.6761°
revolutions per day: 14.13372458
mean anomaly at epoch: 92.3050°
orbit number at epoch: 9949

The dashed part of the orbit path shows where the satellite is in the earth's shadow,  

DLR